Voltar ao catálogo

STARLINK-2257

AtivoComunicaçõesVLEO
NORAD 47787·PAYLOAD·🇺🇸 United States

Lançado Mar 11, 2021 de Cape Canaveral Space Force Station

Loading…

Próximas Passagens (próximas 24 horas)

TLE

AtualizadoSource: CelesTrak SupGP

Época: Sep 15, 2026, 01:54 UTC

1 47787C 21018A   26258.07965278 -.00003635  00000+0 -11688-3 0  2585
2 47787  53.1564  84.3191 0001095  83.8845 260.3913 15.31705351    12

Acompanhe STARLINK-2257 em tempo real com AllMySat

Download on the App Store